Location: Pasadena-CA
(34.1440°N, 118.1100°W)
Time: 23:51:54
(UTC-07:00)

Oscar 19 - Pass Details

Date: 09 July 2022
Orbit: 773 x 790 km, 98.8° (Epoch: 14 August)

Event Time Altitude Azimuth Distance (km) Brightness Sun altitude
Rises 04:11:49 0° 15° (NNE) 3,254 14.9 -17.1°
Reaches altitude 10° 04:14:08 10° 18° (NNE) 2,324 14.0 -16.7°
Maximum altitude 04:19:15 71° 102° (ESE) 818 10.8 -16.0°
Enters shadow 04:23:43 14° 186° (S) 2,071 12.4 -15.3°
